owner,sensor,date,latitude,longitude,vertical_datum,wind_speed,wind_to_direction,wind_speed_of_gust,qcFlag 
COMPS,ioos:station:USF.COMPS:C10:1,2017-12-01T00:05:00Z,27.1690,-82.9260,3.0,6.13,1.04,7.64,'1111122,1111122,1111122' 
COMPS,ioos:station:USF.COMPS:C10:1,2017-12-01T00:35:00Z,27.1690,-82.9260,3.0,6.44,7.95,7.76,'1111122,1111122,1111122' 
COMPS,ioos:station:USF.COMPS:C10:1,2017-12-01T01:05:00Z,27.1690,-82.9260,3.0,6.34,11.44,7.65,'1111122,1111122,1111122' 
COMPS,ioos:station:USF.COMPS:C10:1,2017-12-01T01:35:00Z,27.1690,-82.9260,3.0,5.78,21.37,7.24,'1111122,1111122,1111122' 
COMPS,ioos:station:USF.COMPS:C10:1,2017-12-01T02:05:00Z,27.1690,-82.9260,3.0,6.05,36.34,7.39,'1111122,1111122,1111122' 
COMPS,ioos:station:USF.COMPS:C10:1,2017-12-01T02:35:00Z,27.1690,-82.9260,3.0,6.41,50.82,8.01,'1111122,1111122,1111122' 
COMPS,ioos:station:USF.COMPS:C10:1,2017-12-01T03:05:00Z,27.1690,-82.9260,3.0,6.82,79.35,8.49,'1111122,1111122,1111122' 
COMPS,ioos:station:USF.COMPS:C10:1,2017-12-01T03:35:00Z,27.1690,-82.9260,3.0,6.29,86.92,7.53,'1111122,1111122,1111122' 
COMPS,ioos:station:USF.COMPS:C10:1,2017-12-01T04:05:00Z,27.1690,-82.9260,3.0,6.95,84.47,8.32,'1111122,1111122,1111122' 
COMPS,ioos:station:USF.COMPS:C10:1,2017-12-01T04:35:00Z,27.1690,-82.9260,3.0,6.91,85.55,8.4,'1111122,1111122,1111122' 
COMPS,ioos:station:USF.COMPS:C10:1,2017-12-01T05:05:00Z,27.1690,-82.9260,3.0,6.52,80.48,7.73,'1111122,1111122,1111122' 
COMPS,ioos:station:USF.COMPS:C10:1,2017-12-01T05:35:00Z,27.1690,-82.9260,3.0,6.27,66.78,7.42,'1111122,1111122,1111122' 
COMPS,ioos:station:USF.COMPS:C10:1,2017-12-01T06:05:00Z,27.1690,-82.9260,3.0,6.12,63.5,7.54,'1111122,1111122,1111122' 
COMPS,ioos:station:USF.COMPS:C10:1,2017-12-01T06:35:00Z,27.1690,-82.9260,3.0,5.78,64.21,7.03,'1111122,1111122,1111122' 
COMPS,ioos:station:USF.COMPS:C10:1,2017-12-01T07:05:00Z,27.1690,-82.9260,3.0,5.05,63.02,5.99,'1111122,1111122,1111122' 
COMPS,ioos:station:USF.COMPS:C10:1,2017-12-01T07:35:00Z,27.1690,-82.9260,3.0,4.47,79.16,5.42,'1111122,1111122,1111122' 
COMPS,ioos:station:USF.COMPS:C10:1,2017-12-01T08:05:00Z,27.1690,-82.9260,3.0,4.87,90.41,5.94,'1111122,1111122,1111122' 
COMPS,ioos:station:USF.COMPS:C10:1,2017-12-01T08:35:00Z,27.1690,-82.9260,3.0,4.67,70.48,5.51,'1111122,1111122,1111122' 
COMPS,ioos:station:USF.COMPS:C10:1,2017-12-01T09:05:00Z,27.1690,-82.9260,3.0,4.45,56.42,5.53,'1111122,1111122,1111122' 
COMPS,ioos:station:USF.COMPS:C10:1,2017-12-01T09:35:00Z,27.1690,-82.9260,3.0,4.22,47.37,5.06,'1111122,1111122,1111122' 
COMPS,ioos:station:USF.COMPS:C10:1,2017-12-01T10:05:00Z,27.1690,-82.9260,3.0,4.76,47.27,5.92,'1111122,1111122,1111122' 
COMPS,ioos:station:USF.COMPS:C10:1,2017-12-01T10:35:00Z,27.1690,-82.9260,3.0,5.1,47.21,6.23,'1111122,1111122,1111122' 
COMPS,ioos:station:USF.COMPS:C10:1,2017-12-01T11:05:00Z,27.1690,-82.9260,3.0,5.39,44.07,6.89,'1111122,1111122,1111122' 
COMPS,ioos:station:USF.COMPS:C10:1,2017-12-01T11:35:00Z,27.1690,-82.9260,3.0,5.56,40.71,6.52,'1111122,1111122,1111122' 
COMPS,ioos:station:USF.COMPS:C10:1,2017-12-01T12:05:00Z,27.1690,-82.9260,3.0,5.92,44.57,6.99,'1111122,1111122,1111122' 
COMPS,ioos:station:USF.COMPS:C10:1,2017-12-01T12:35:00Z,27.1690,-82.9260,3.0,5.26,53.76,6.36,'1111122,1111122,1111122' 
COMPS,ioos:station:USF.COMPS:C10:1,2017-12-01T13:05:00Z,27.1690,-82.9260,3.0,5.05,67.4,6.25,'1111122,1111122,1111122' 
COMPS,ioos:station:USF.COMPS:C10:1,2017-12-01T13:35:00Z,27.1690,-82.9260,3.0,4.37,63.88,5.57,'1111122,1111122,1111122' 
COMPS,ioos:station:USF.COMPS:C10:1,2017-12-01T14:05:00Z,27.1690,-82.9260,3.0,4.53,41.33,5.59,'1111122,1111122,1111122' 
COMPS,ioos:station:USF.COMPS:C10:1,2017-12-01T14:35:00Z,27.1690,-82.9260,3.0,4.27,45.18,5.15,'1111122,1111122,1111122' 
COMPS,ioos:station:USF.COMPS:C10:1,2017-12-01T15:05:00Z,27.1690,-82.9260,3.0,4.16,52.85,5.1,'1111122,1111122,1111122' 
COMPS,ioos:station:USF.COMPS:C10:1,2017-12-01T15:35:00Z,27.1690,-82.9260,3.0,3.59,52.84,4.39,'1111122,1111122,1111122' 
COMPS,ioos:station:USF.COMPS:C10:1,2017-12-01T16:05:00Z,27.1690,-82.9260,3.0,3.45,62.09,4.36,'1111122,1111122,1111122' 
COMPS,ioos:station:USF.COMPS:C10:1,2017-12-01T16:35:00Z,27.1690,-82.9260,3.0,2.9,50.95,3.63,'1111122,1111122,1111122' 
COMPS,ioos:station:USF.COMPS:C10:1,2017-12-01T17:05:00Z,27.1690,-82.9260,3.0,3.04,41.17,3.81,'1111122,1111122,1111122' 
COMPS,ioos:station:USF.COMPS:C10:1,2017-12-01T17:35:00Z,27.1690,-82.9260,3.0,3.3,23.59,4.17,'1111122,1111122,1111122' 
COMPS,ioos:station:USF.COMPS:C10:1,2017-12-01T18:05:00Z,27.1690,-82.9260,3.0,3.43,5.73,4.24,'1111122,1111122,1111122' 
COMPS,ioos:station:USF.COMPS:C10:1,2017-12-01T18:35:00Z,27.1690,-82.9260,3.0,3.6,357.6,4.29,'1111122,1111122,1111122' 
COMPS,ioos:station:USF.COMPS:C10:1,2017-12-01T19:05:00Z,27.1690,-82.9260,3.0,3.37,357.95,3.95,'1111122,1111122,1111122' 
COMPS,ioos:station:USF.COMPS:C10:1,2017-12-01T19:35:00Z,27.1690,-82.9260,3.0,3.48,348.79,4.09,'1111122,1111122,1111122' 
COMPS,ioos:station:USF.COMPS:C10:1,2017-12-01T20:05:00Z,27.1690,-82.9260,3.0,3.83,351.52,4.51,'1111122,1111122,1111122' 
COMPS,ioos:station:USF.COMPS:C10:1,2017-12-01T20:35:00Z,27.1690,-82.9260,3.0,4.05,334.96,4.83,'1111122,1111122,1111122' 
COMPS,ioos:station:USF.COMPS:C10:1,2017-12-01T21:05:00Z,27.1690,-82.9260,3.0,4.01,341.42,4.8,'1111122,1111122,1111122' 
COMPS,ioos:station:USF.COMPS:C10:1,2017-12-01T21:35:00Z,27.1690,-82.9260,3.0,4.04,336.45,4.81,'1111122,1111122,1111122' 
COMPS,ioos:station:USF.COMPS:C10:1,2017-12-01T22:05:00Z,27.1690,-82.9260,3.0,3.88,338.6,4.76,'1111122,1111122,1111122' 
COMPS,ioos:station:USF.COMPS:C10:1,2017-12-01T22:35:00Z,27.1690,-82.9260,3.0,3.81,343.74,4.58,'1111122,1111122,1111122' 
COMPS,ioos:station:USF.COMPS:C10:1,2017-12-01T23:05:00Z,27.1690,-82.9260,3.0,4.07,346.28,4.88,'1111122,1111122,1111122' 
COMPS,ioos:station:USF.COMPS:C10:1,2017-12-01T23:35:00Z,27.1690,-82.9260,3.0,3.72,351.35,4.83,'1111122,1111122,1111122' 
COMPS,ioos:station:USF.COMPS:C10:1,2017-12-02T00:05:00Z,27.1690,-82.9260,3.0,5.11,1.18,6.21,'1111122,1111122,1111122' 
COMPS,ioos:station:USF.COMPS:C10:1,2017-12-02T00:35:00Z,27.1690,-82.9260,3.0,5.54,12.06,6.68,'1111122,1111122,1111122' 
COMPS,ioos:station:USF.COMPS:C10:1,2017-12-02T01:05:00Z,27.1690,-82.9260,3.0,5.8,16.34,6.82,'1111122,1111122,1111122' 
COMPS,ioos:station:USF.COMPS:C10:1,2017-12-02T01:35:00Z,27.1690,-82.9260,3.0,5.97,17.63,6.97,'1111122,1111122,1111122' 
COMPS,ioos:station:USF.COMPS:C10:1,2017-12-02T02:05:00Z,27.1690,-82.9260,3.0,5.98,22.08,7.0,'1111122,1111122,1111122' 
COMPS,ioos:station:USF.COMPS:C10:1,2017-12-02T02:35:00Z,27.1690,-82.9260,3.0,6.09,25.87,7.02,'1111122,1111122,1111122' 
COMPS,ioos:station:USF.COMPS:C10:1,2017-12-02T03:05:00Z,27.1690,-82.9260,3.0,5.9,31.01,6.72,'1111122,1111122,1111122' 
COMPS,ioos:station:USF.COMPS:C10:1,2017-12-02T03:35:00Z,27.1690,-82.9260,3.0,4.79,35.14,5.55,'1111122,1111122,1111122' 
COMPS,ioos:station:USF.COMPS:C10:1,2017-12-02T04:05:00Z,27.1690,-82.9260,3.0,4.21,69.79,5.2,'1111122,1111122,1111122' 
COMPS,ioos:station:USF.COMPS:C10:1,2017-12-02T04:35:00Z,27.1690,-82.9260,3.0,4.13,94.57,5.04,'1111122,1111122,1111122' 
COMPS,ioos:station:USF.COMPS:C10:1,2017-12-02T05:05:00Z,27.1690,-82.9260,3.0,4.05,98.5,4.79,'1111122,1111122,1111122' 
COMPS,ioos:station:USF.COMPS:C10:1,2017-12-02T05:35:00Z,27.1690,-82.9260,3.0,4.71,97.37,5.8,'1111122,1111122,1111122' 
COMPS,ioos:station:USF.COMPS:C10:1,2017-12-02T06:05:00Z,27.1690,-82.9260,3.0,4.06,85.74,5.34,'1111122,1111122,1111122' 
COMPS,ioos:station:USF.COMPS:C10:1,2017-12-02T06:35:00Z,27.1690,-82.9260,3.0,4.07,97.13,5.0,'1111122,1111122,1111122' 
COMPS,ioos:station:USF.COMPS:C10:1,2017-12-02T07:05:00Z,27.1690,-82.9260,3.0,4.21,90.22,4.98,'1111122,1111122,1111122' 
COMPS,ioos:station:USF.COMPS:C10:1,2017-12-02T07:35:00Z,27.1690,-82.9260,3.0,4.23,85.51,5.18,'1111122,1111122,1111122' 
COMPS,ioos:station:USF.COMPS:C10:1,2017-12-02T08:05:00Z,27.1690,-82.9260,3.0,3.65,88.56,4.3,'1111122,1111122,1111122' 
COMPS,ioos:station:USF.COMPS:C10:1,2017-12-02T08:35:00Z,27.1690,-82.9260,3.0,3.42,88.4,4.29,'1111122,1111122,1111122' 
COMPS,ioos:station:USF.COMPS:C10:1,2017-12-02T09:05:00Z,27.1690,-82.9260,3.0,3.91,85.49,4.65,'1111122,1111122,1111122' 
COMPS,ioos:station:USF.COMPS:C10:1,2017-12-02T09:35:00Z,27.1690,-82.9260,3.0,3.83,67.79,4.57,'1111122,1111122,1111122' 
COMPS,ioos:station:USF.COMPS:C10:1,2017-12-02T10:05:00Z,27.1690,-82.9260,3.0,3.66,68.77,4.42,'1111122,1111122,1111122' 
COMPS,ioos:station:USF.COMPS:C10:1,2017-12-02T10:35:00Z,27.1690,-82.9260,3.0,3.55,64.49,4.16,'1111122,1111122,1111122' 
COMPS,ioos:station:USF.COMPS:C10:1,2017-12-02T11:05:00Z,27.1690,-82.9260,3.0,3.59,64.97,4.56,'1111122,1111122,1111122' 
COMPS,ioos:station:USF.COMPS:C10:1,2017-12-02T11:35:00Z,27.1690,-82.9260,3.0,3.79,66.61,4.62,'1111122,1111122,1111122' 
COMPS,ioos:station:USF.COMPS:C10:1,2017-12-02T12:05:00Z,27.1690,-82.9260,3.0,3.69,84.59,4.5,'1111122,1111122,1111122' 
COMPS,ioos:station:USF.COMPS:C10:1,2017-12-02T12:35:00Z,27.1690,-82.9260,3.0,3.68,90.41,4.56,'1111122,1111122,1111122' 
COMPS,ioos:station:USF.COMPS:C10:1,2017-12-02T13:05:00Z,27.1690,-82.9260,3.0,3.47,80.19,4.4,'1111122,1111122,1111122' 
COMPS,ioos:station:USF.COMPS:C10:1,2017-12-02T13:35:00Z,27.1690,-82.9260,3.0,3.6,81.6,4.17,'1111122,1111122,1111122' 
COMPS,ioos:station:USF.COMPS:C10:1,2017-12-02T14:05:00Z,27.1690,-82.9260,3.0,3.36,77.34,4.32,'1111122,1111122,1111122' 
COMPS,ioos:station:USF.COMPS:C10:1,2017-12-02T14:35:00Z,27.1690,-82.9260,3.0,3.08,73.13,4.01,'1111122,1111122,1111122' 
COMPS,ioos:station:USF.COMPS:C10:1,2017-12-02T15:05:00Z,27.1690,-82.9260,3.0,2.81,75.68,3.57,'1111122,1111122,1111122' 
COMPS,ioos:station:USF.COMPS:C10:1,2017-12-02T15:35:00Z,27.1690,-82.9260,3.0,2.78,93.71,3.65,'1111122,1111122,1111122' 
COMPS,ioos:station:USF.COMPS:C10:1,2017-12-02T16:05:00Z,27.1690,-82.9260,3.0,2.3,75.52,2.8,'1111122,1111122,1111122' 
COMPS,ioos:station:USF.COMPS:C10:1,2017-12-02T16:35:00Z,27.1690,-82.9260,3.0,2.55,87.52,3.07,'1111122,1111122,1111122' 
COMPS,ioos:station:USF.COMPS:C10:1,2017-12-02T17:05:00Z,27.1690,-82.9260,3.0,2.25,85.11,3.03,'1111122,1111122,1111122' 
COMPS,ioos:station:USF.COMPS:C10:1,2017-12-02T17:35:00Z,27.1690,-82.9260,3.0,2.25,90.09,3.0,'1111122,1111122,1111122' 
COMPS,ioos:station:USF.COMPS:C10:1,2017-12-02T18:05:00Z,27.1690,-82.9260,3.0,1.83,100.06,2.31,'1111122,1111122,1111122' 
COMPS,ioos:station:USF.COMPS:C10:1,2017-12-02T18:35:00Z,27.1690,-82.9260,3.0,1.2,69.41,1.73,'1111122,1111122,1111122' 
COMPS,ioos:station:USF.COMPS:C10:1,2017-12-02T19:05:00Z,27.1690,-82.9260,3.0,1.3,7.67,1.72,'1111122,1111122,1111122' 
COMPS,ioos:station:USF.COMPS:C10:1,2017-12-02T19:35:00Z,27.1690,-82.9260,3.0,1.91,326.48,2.51,'1111122,1111122,1111122' 
COMPS,ioos:station:USF.COMPS:C10:1,2017-12-02T20:05:00Z,27.1690,-82.9260,3.0,2.07,319.59,2.47,'1111122,1111122,1111122' 
COMPS,ioos:station:USF.COMPS:C10:1,2017-12-02T20:35:00Z,27.1690,-82.9260,3.0,2.66,317.17,3.36,'1111122,1111122,1111122' 
COMPS,ioos:station:USF.COMPS:C10:1,2017-12-02T21:05:00Z,27.1690,-82.9260,3.0,3.63,321.84,4.25,'1111122,1111122,1111122' 
COMPS,ioos:station:USF.COMPS:C10:1,2017-12-02T21:35:00Z,27.1690,-82.9260,3.0,3.84,324.63,4.66,'1111122,1111122,1111122' 
COMPS,ioos:station:USF.COMPS:C10:1,2017-12-02T22:05:00Z,27.1690,-82.9260,3.0,3.97,327.93,4.7,'1111122,1111122,1111122' 
COMPS,ioos:station:USF.COMPS:C10:1,2017-12-02T22:35:00Z,27.1690,-82.9260,3.0,3.99,330.87,4.71,'1111122,1111122,1111122' 
COMPS,ioos:station:USF.COMPS:C10:1,2017-12-02T23:05:00Z,27.1690,-82.9260,3.0,3.73,330.94,4.35,'1111122,1111122,1111122' 
COMPS,ioos:station:USF.COMPS:C10:1,2017-12-02T23:35:00Z,27.1690,-82.9260,3.0,4.6,338.23,5.25,'1111122,1111122,1111122' 
COMPS,ioos:station:USF.COMPS:C10:1,2017-12-03T00:05:00Z,27.1690,-82.9260,3.0,4.02,341.6,4.94,'1111122,1111122,1111122' 
COMPS,ioos:station:USF.COMPS:C10:1,2017-12-03T00:35:00Z,27.1690,-82.9260,3.0,3.59,338.34,4.23,'1111122,1111122,1111122' 
COMPS,ioos:station:USF.COMPS:C10:1,2017-12-03T01:05:00Z,27.1690,-82.9260,3.0,4.32,347.36,4.9,'1111122,1111122,1111122' 
COMPS,ioos:station:USF.COMPS:C10:1,2017-12-03T01:35:00Z,27.1690,-82.9260,3.0,4.59,351.02,5.32,'1111122,1111122,1111122' 
COMPS,ioos:station:USF.COMPS:C10:1,2017-12-03T02:05:00Z,27.1690,-82.9260,3.0,4.81,359.9,5.7,'1111122,1111122,1111122' 
COMPS,ioos:station:USF.COMPS:C10:1,2017-12-03T02:35:00Z,27.1690,-82.9260,3.0,4.73,7.24,5.72,'1111122,1111122,1111122' 
COMPS,ioos:station:USF.COMPS:C10:1,2017-12-03T03:05:00Z,27.1690,-82.9260,3.0,4.79,11.83,5.67,'1111122,1111122,1111122' 
COMPS,ioos:station:USF.COMPS:C10:1,2017-12-03T03:35:00Z,27.1690,-82.9260,3.0,5.17,23.77,6.24,'1111122,1111122,1111122' 
COMPS,ioos:station:USF.COMPS:C10:1,2017-12-03T04:05:00Z,27.1690,-82.9260,3.0,4.63,27.09,5.58,'1111122,1111122,1111122' 
COMPS,ioos:station:USF.COMPS:C10:1,2017-12-03T04:35:00Z,27.1690,-82.9260,3.0,4.84,26.82,5.65,'1111122,1111122,1111122' 
COMPS,ioos:station:USF.COMPS:C10:1,2017-12-03T05:05:00Z,27.1690,-82.9260,3.0,4.53,36.93,6.27,'1111122,1111122,1111122' 
COMPS,ioos:station:USF.COMPS:C10:1,2017-12-03T05:35:00Z,27.1690,-82.9260,3.0,4.18,53.7,5.19,'1111122,1111122,1111122' 
COMPS,ioos:station:USF.COMPS:C10:1,2017-12-03T06:05:00Z,27.1690,-82.9260,3.0,3.87,51.53,4.91,'1111122,1111122,1111122' 
COMPS,ioos:station:USF.COMPS:C10:1,2017-12-03T06:35:00Z,27.1690,-82.9260,3.0,3.86,53.0,4.57,'1111122,1111122,1111122' 
COMPS,ioos:station:USF.COMPS:C10:1,2017-12-03T07:05:00Z,27.1690,-82.9260,3.0,3.91,44.5,4.74,'1111122,1111122,1111122' 
COMPS,ioos:station:USF.COMPS:C10:1,2017-12-03T07:35:00Z,27.1690,-82.9260,3.0,3.23,33.61,3.94,'1111122,1111122,1111122' 
COMPS,ioos:station:USF.COMPS:C10:1,2017-12-03T08:05:00Z,27.1690,-82.9260,3.0,3.25,29.21,4.05,'1111122,1111122,1111122' 
COMPS,ioos:station:USF.COMPS:C10:1,2017-12-03T08:35:00Z,27.1690,-82.9260,3.0,3.42,29.69,4.42,'1111122,1111122,1111122' 
COMPS,ioos:station:USF.COMPS:C10:1,2017-12-03T09:05:00Z,27.1690,-82.9260,3.0,3.56,25.46,4.45,'1111122,1111122,1111122' 
COMPS,ioos:station:USF.COMPS:C10:1,2017-12-03T09:35:00Z,27.1690,-82.9260,3.0,4.04,26.58,4.82,'1111122,1111122,1111122' 
COMPS,ioos:station:USF.COMPS:C10:1,2017-12-03T10:05:00Z,27.1690,-82.9260,3.0,4.46,26.61,5.18,'1111122,1111122,1111122' 
COMPS,ioos:station:USF.COMPS:C10:1,2017-12-03T10:35:00Z,27.1690,-82.9260,3.0,4.13,23.44,4.93,'1111122,1111122,1111122' 
COMPS,ioos:station:USF.COMPS:C10:1,2017-12-03T11:05:00Z,27.1690,-82.9260,3.0,4.02,29.66,4.87,'1111122,1111122,1111122' 
COMPS,ioos:station:USF.COMPS:C10:1,2017-12-03T11:35:00Z,27.1690,-82.9260,3.0,3.51,38.17,4.33,'1111122,1111122,1111122' 
COMPS,ioos:station:USF.COMPS:C10:1,2017-12-03T12:05:00Z,27.1690,-82.9260,3.0,3.68,41.99,4.37,'1111122,1111122,1111122' 
COMPS,ioos:station:USF.COMPS:C10:1,2017-12-03T12:35:00Z,27.1690,-82.9260,3.0,3.61,44.22,4.57,'1111122,1111122,1111122' 
COMPS,ioos:station:USF.COMPS:C10:1,2017-12-03T13:05:00Z,27.1690,-82.9260,3.0,3.45,42.78,4.34,'1111122,1111122,1111122' 
COMPS,ioos:station:USF.COMPS:C10:1,2017-12-03T13:35:00Z,27.1690,-82.9260,3.0,3.21,65.76,3.9,'1111122,1111122,1111122' 
COMPS,ioos:station:USF.COMPS:C10:1,2017-12-03T14:05:00Z,27.1690,-82.9260,3.0,2.94,64.15,3.71,'1111122,1111122,1111122' 
COMPS,ioos:station:USF.COMPS:C10:1,2017-12-03T14:35:00Z,27.1690,-82.9260,3.0,2.71,58.45,3.52,'1111122,1111122,1111122' 
COMPS,ioos:station:USF.COMPS:C10:1,2017-12-03T15:05:00Z,27.1690,-82.9260,3.0,2.78,42.59,3.55,'1111122,1111122,1111122' 
COMPS,ioos:station:USF.COMPS:C10:1,2017-12-03T15:35:00Z,27.1690,-82.9260,3.0,2.76,42.38,3.38,'1111122,1111122,1111122' 
COMPS,ioos:station:USF.COMPS:C10:1,2017-12-03T16:05:00Z,27.1690,-82.9260,3.0,2.77,43.91,3.58,'1111122,1111122,1111122' 
COMPS,ioos:station:USF.COMPS:C10:1,2017-12-03T16:35:00Z,27.1690,-82.9260,3.0,2.21,50.65,2.79,'1111122,1111122,1111122' 
COMPS,ioos:station:USF.COMPS:C10:1,2017-12-03T17:05:00Z,27.1690,-82.9260,3.0,2.04,52.0,2.61,'1111122,1111122,1111122' 
COMPS,ioos:station:USF.COMPS:C10:1,2017-12-03T17:35:00Z,27.1690,-82.9260,3.0,1.84,48.28,2.42,'1111122,1111122,1111122' 
COMPS,ioos:station:USF.COMPS:C10:1,2017-12-03T18:05:00Z,27.1690,-82.9260,3.0,1.84,30.75,2.27,'1111122,1111122,1111122' 
COMPS,ioos:station:USF.COMPS:C10:1,2017-12-03T18:35:00Z,27.1690,-82.9260,3.0,1.48,25.09,2.1,'1111122,1111122,1111122' 
COMPS,ioos:station:USF.COMPS:C10:1,2017-12-03T19:05:00Z,27.1690,-82.9260,3.0,1.72,18.55,2.21,'1111122,1111122,1111122' 
COMPS,ioos:station:USF.COMPS:C10:1,2017-12-03T19:35:00Z,27.1690,-82.9260,3.0,1.61,13.97,2.02,'1111122,1111122,1111122' 
COMPS,ioos:station:USF.COMPS:C10:1,2017-12-03T20:05:00Z,27.1690,-82.9260,3.0,1.37,353.54,1.78,'1111122,1111122,1111122' 
COMPS,ioos:station:USF.COMPS:C10:1,2017-12-03T20:35:00Z,27.1690,-82.9260,3.0,1.64,336.91,2.09,'1111122,1111122,1111122' 
COMPS,ioos:station:USF.COMPS:C10:1,2017-12-03T21:05:00Z,27.1690,-82.9260,3.0,1.87,332.31,2.41,'1111122,1111122,1111122' 
COMPS,ioos:station:USF.COMPS:C10:1,2017-12-03T21:35:00Z,27.1690,-82.9260,3.0,2.74,336.38,3.43,'1111122,1111122,1111122' 
COMPS,ioos:station:USF.COMPS:C10:1,2017-12-03T22:05:00Z,27.1690,-82.9260,3.0,3.06,347.55,3.79,'1111122,1111122,1111122' 
COMPS,ioos:station:USF.COMPS:C10:1,2017-12-03T22:35:00Z,27.1690,-82.9260,3.0,3.43,347.85,4.09,'1111122,1111122,1111122' 
COMPS,ioos:station:USF.COMPS:C10:1,2017-12-03T23:05:00Z,27.1690,-82.9260,3.0,2.96,355.43,3.57,'1111122,1111122,1111122' 
COMPS,ioos:station:USF.COMPS:C10:1,2017-12-03T23:35:00Z,27.1690,-82.9260,3.0,3.26,2.58,3.82,'1111122,1111122,1111122' 
COMPS,ioos:station:USF.COMPS:C10:1,2017-12-04T00:05:00Z,27.1690,-82.9260,3.0,3.21,0.42,3.8,'1111122,1111122,1111122' 
COMPS,ioos:station:USF.COMPS:C10:1,2017-12-04T00:35:00Z,27.1690,-82.9260,3.0,3.45,2.72,3.92,'1111122,1111122,1111122' 
COMPS,ioos:station:USF.COMPS:C10:1,2017-12-04T01:05:00Z,27.1690,-82.9260,3.0,3.28,8.21,3.79,'1111122,1111122,1111122' 
COMPS,ioos:station:USF.COMPS:C10:1,2017-12-04T01:35:00Z,27.1690,-82.9260,3.0,3.68,1.13,4.36,'1111122,1111122,1111122' 
COMPS,ioos:station:USF.COMPS:C10:1,2017-12-04T02:05:00Z,27.1690,-82.9260,3.0,4.02,1.58,4.84,'1111122,1111122,1111122' 
COMPS,ioos:station:USF.COMPS:C10:1,2017-12-04T02:35:00Z,27.1690,-82.9260,3.0,4.01,9.52,5.24,'1111122,1111122,1111122' 
COMPS,ioos:station:USF.COMPS:C10:1,2017-12-04T03:05:00Z,27.1690,-82.9260,3.0,4.7,23.85,5.68,'1111122,1111122,1111122' 
COMPS,ioos:station:USF.COMPS:C10:1,2017-12-04T03:35:00Z,27.1690,-82.9260,3.0,4.91,27.46,5.91,'1111122,1111122,1111122' 
COMPS,ioos:station:USF.COMPS:C10:1,2017-12-04T04:05:00Z,27.1690,-82.9260,3.0,4.8,38.93,5.88,'1111122,1111122,1111122' 
COMPS,ioos:station:USF.COMPS:C10:1,2017-12-04T04:35:00Z,27.1690,-82.9260,3.0,5.0,42.28,6.39,'1111122,1111122,1111122' 
COMPS,ioos:station:USF.COMPS:C10:1,2017-12-04T05:05:00Z,27.1690,-82.9260,3.0,4.6,45.07,5.5,'1111122,1111122,1111122' 
COMPS,ioos:station:USF.COMPS:C10:1,2017-12-04T05:35:00Z,27.1690,-82.9260,3.0,4.69,40.02,5.5,'1111122,1111122,1111122' 
COMPS,ioos:station:USF.COMPS:C10:1,2017-12-04T06:05:00Z,27.1690,-82.9260,3.0,5.18,48.98,6.4,'1111122,1111122,1111122' 
COMPS,ioos:station:USF.COMPS:C10:1,2017-12-04T06:35:00Z,27.1690,-82.9260,3.0,7.09,55.25,8.85,'1111122,1111122,1111122' 
COMPS,ioos:station:USF.COMPS:C10:1,2017-12-04T07:05:00Z,27.1690,-82.9260,3.0,7.67,75.25,9.38,'1111122,1111122,1111122' 
COMPS,ioos:station:USF.COMPS:C10:1,2017-12-04T07:35:00Z,27.1690,-82.9260,3.0,7.72,86.83,9.27,'1111122,1111122,1111122' 
COMPS,ioos:station:USF.COMPS:C10:1,2017-12-04T08:05:00Z,27.1690,-82.9260,3.0,8.55,91.31,10.2,'1111122,1111122,1111122' 
COMPS,ioos:station:USF.COMPS:C10:1,2017-12-04T08:35:00Z,27.1690,-82.9260,3.0,7.51,84.49,8.85,'1111122,1111122,1111122' 
COMPS,ioos:station:USF.COMPS:C10:1,2017-12-04T09:05:00Z,27.1690,-82.9260,3.0,6.99,86.21,8.78,'1111122,1111122,1111122' 
COMPS,ioos:station:USF.COMPS:C10:1,2017-12-04T09:35:00Z,27.1690,-82.9260,3.0,6.38,84.53,7.7,'1111122,1111122,1111122' 
COMPS,ioos:station:USF.COMPS:C10:1,2017-12-04T10:05:00Z,27.1690,-82.9260,3.0,5.75,79.35,6.93,'1111122,1111122,1111122' 
COMPS,ioos:station:USF.COMPS:C10:1,2017-12-04T10:35:00Z,27.1690,-82.9260,3.0,5.52,77.26,6.69,'1111122,1111122,1111122' 
COMPS,ioos:station:USF.COMPS:C10:1,2017-12-04T11:05:00Z,27.1690,-82.9260,3.0,5.6,75.74,6.55,'1111122,1111122,1111122' 
COMPS,ioos:station:USF.COMPS:C10:1,2017-12-04T11:35:00Z,27.1690,-82.9260,3.0,5.99,81.17,7.14,'1111122,1111122,1111122' 
COMPS,ioos:station:USF.COMPS:C10:1,2017-12-04T12:05:00Z,27.1690,-82.9260,3.0,5.69,77.35,6.74,'1111122,1111122,1111122' 
COMPS,ioos:station:USF.COMPS:C10:1,2017-12-04T12:35:00Z,27.1690,-82.9260,3.0,5.81,82.37,6.98,'1111122,1111122,1111122' 
COMPS,ioos:station:USF.COMPS:C10:1,2017-12-04T13:05:00Z,27.1690,-82.9260,3.0,6.13,79.37,7.11,'1111122,1111122,1111122' 
COMPS,ioos:station:USF.COMPS:C10:1,2017-12-04T13:35:00Z,27.1690,-82.9260,3.0,5.54,77.43,6.54,'1111122,1111122,1111122' 
COMPS,ioos:station:USF.COMPS:C10:1,2017-12-04T14:05:00Z,27.1690,-82.9260,3.0,5.41,77.56,6.4,'1111122,1111122,1111122' 
COMPS,ioos:station:USF.COMPS:C10:1,2017-12-04T14:35:00Z,27.1690,-82.9260,3.0,5.48,74.23,6.57,'1111122,1111122,1111122' 
COMPS,ioos:station:USF.COMPS:C10:1,2017-12-04T15:05:00Z,27.1690,-82.9260,3.0,5.1,78.61,6.07,'1111122,1111122,1111122' 
COMPS,ioos:station:USF.COMPS:C10:1,2017-12-04T15:35:00Z,27.1690,-82.9260,3.0,5.39,88.57,6.71,'1111122,1111122,1111122' 
COMPS,ioos:station:USF.COMPS:C10:1,2017-12-04T16:05:00Z,27.1690,-82.9260,3.0,5.05,93.0,6.03,'1111122,1111122,1111122' 
COMPS,ioos:station:USF.COMPS:C10:1,2017-12-04T16:35:00Z,27.1690,-82.9260,3.0,4.71,94.09,5.82,'1111122,1111122,1111122' 
COMPS,ioos:station:USF.COMPS:C10:1,2017-12-04T17:05:00Z,27.1690,-82.9260,3.0,4.07,98.89,4.94,'1111122,1111122,1111122' 
COMPS,ioos:station:USF.COMPS:C10:1,2017-12-04T17:35:00Z,27.1690,-82.9260,3.0,3.65,100.02,4.74,'1111122,1111122,1111122' 
COMPS,ioos:station:USF.COMPS:C10:1,2017-12-04T18:05:00Z,27.1690,-82.9260,3.0,3.81,114.0,4.84,'1111122,1111122,1111122' 
COMPS,ioos:station:USF.COMPS:C10:1,2017-12-04T18:35:00Z,27.1690,-82.9260,3.0,2.1,120.49,3.12,'1111122,1111122,1111122' 
COMPS,ioos:station:USF.COMPS:C10:1,2017-12-04T19:05:00Z,27.1690,-82.9260,3.0,1.64,89.87,2.37,'1111122,1111122,1111122' 
COMPS,ioos:station:USF.COMPS:C10:1,2017-12-04T19:35:00Z,27.1690,-82.9260,3.0,0.52,18.87,1.31,'1111122,1111122,1111122' 
COMPS,ioos:station:USF.COMPS:C10:1,2017-12-04T20:05:00Z,27.1690,-82.9260,3.0,1.12,7.94,1.5,'1111122,1111122,1111122' 
COMPS,ioos:station:USF.COMPS:C10:1,2017-12-04T20:35:00Z,27.1690,-82.9260,3.0,2.35,357.04,3.18,'1111122,1111122,1111122' 
COMPS,ioos:station:USF.COMPS:C10:1,2017-12-04T21:05:00Z,27.1690,-82.9260,3.0,3.1,357.64,3.99,'1111122,1111122,1111122' 
COMPS,ioos:station:USF.COMPS:C10:1,2017-12-04T21:35:00Z,27.1690,-82.9260,3.0,2.76,2.56,3.42,'1111122,1111122,1111122' 
COMPS,ioos:station:USF.COMPS:C10:1,2017-12-04T22:05:00Z,27.1690,-82.9260,3.0,3.21,359.23,3.86,'1111122,1111122,1111122' 
COMPS,ioos:station:USF.COMPS:C10:1,2017-12-04T22:35:00Z,27.1690,-82.9260,3.0,3.11,359.71,3.64,'1111122,1111122,1111122' 
COMPS,ioos:station:USF.COMPS:C10:1,2017-12-04T23:05:00Z,27.1690,-82.9260,3.0,3.46,0.37,4.09,'1111122,1111122,1111122' 
COMPS,ioos:station:USF.COMPS:C10:1,2017-12-04T23:35:00Z,27.1690,-82.9260,3.0,4.82,7.15,5.72,'1111122,1111122,1111122' 
COMPS,ioos:station:USF.COMPS:C10:1,2017-12-05T00:05:00Z,27.1690,-82.9260,3.0,5.27,2.93,6.09,'1111122,1111122,1111122' 
COMPS,ioos:station:USF.COMPS:C10:1,2017-12-05T00:35:00Z,27.1690,-82.9260,3.0,5.27,9.61,6.22,'1111122,1111122,1111122' 
COMPS,ioos:station:USF.COMPS:C10:1,2017-12-05T01:05:00Z,27.1690,-82.9260,3.0,4.95,27.27,6.03,'1111122,1111122,1111122' 
COMPS,ioos:station:USF.COMPS:C10:1,2017-12-05T01:35:00Z,27.1690,-82.9260,3.0,4.4,43.54,5.61,'1111122,1111122,1111122' 
COMPS,ioos:station:USF.COMPS:C10:1,2017-12-05T02:05:00Z,27.1690,-82.9260,3.0,5.3,68.09,6.48,'1111122,1111122,1111122' 
COMPS,ioos:station:USF.COMPS:C10:1,2017-12-05T02:35:00Z,27.1690,-82.9260,3.0,5.71,79.99,6.8,'1111122,1111122,1111122' 
COMPS,ioos:station:USF.COMPS:C10:1,2017-12-05T03:05:00Z,27.1690,-82.9260,3.0,6.77,83.03,8.49,'1111122,1111122,1111122' 